Location: ??????
(36.0418°N, 43.6351°E)
Time: 03:21:24
(UTC+00:00)

Cosmos 1602 - Pass Details

Date: 07 March 2021
Orbit: 512 x 534 km, 82.5° (Epoch: 19 April)

Event Time Altitude Azimuth Distance (km) Brightness Sun altitude
Rises 02:22:59 0° 353° (N) 2,684 7.3 -13.9°
Reaches altitude 10° 02:25:09 10° 354° (N) 1,787 6.4 -13.5°
Maximum altitude 02:29:05 85° 82° (E) 537 3.8 -12.7°
Drops below altitude 10° 02:32:58 10° 172° (S) 1,762 6.5 -11.9°
Sets 02:35:05 0° 173° (S) 2,643 7.4 -11.4°
